Skip Page Navigation
NASA JPL Caltech
NASA Logo - Jet Propulsion Laboratory + View the NASA Portal
+ Center for Near-Earth Object Studies
JPL Home Earth Solar System Stars & Galaxies Technology
JPL Solar System Dynamics
BODIES ORBITS EPHEMERIDES TOOLS PHYSICAL DATA DISCOVERY FAQ SITE MAP
IMPORTANT: The SSD Announcement email list is now available. Major changes are coming in the near future, including possible hostname and/or URL changes. To be notified of such changes, subscribe to this email list.

Please visit this page for more details.


JPL Small-Body Database Browser
Search: [ help ]  
47995 (2000 YE133)
Classification: Main-belt Asteroid          SPK-ID: 2047995
Ephemeris | Orbit Diagram | Orbital Elements | Mission Design | Physical Parameters | Discovery Circumstances | Close-Approach Data ]

[ show orbit diagram ]
Orbital Elements at Epoch 2458600.5 (2019-Apr-27.0) TDB
Reference: JPL 29 (heliocentric ecliptic J2000)
 Element Value Uncertainty (1-sigma)   Units 
e .07657815626557656 3.6803e-08  
a 3.023347856657071 1.9335e-08 au
q 2.79182545204479 1.0759e-07 au
i 10.00239211036717 4.0391e-06 deg
node 161.6567029859172 2.1921e-05 deg
peri 84.13625727324482 3.3905e-05 deg
M 99.86026706666929 2.6074e-05 deg
tp 2458067.875883070523
(2017-Nov-10.37588307)
0.00013846 TDB
period 1920.129874743857
5.26
1.8419e-05
5.043e-08
d
yr
n .18748731777741 1.7985e-09 deg/d
Q 3.254870261269352 2.0816e-08 au
  Orbit Determination Parameters
   # obs. used (total)      1565  
   data-arc span      7736 days (21.18 yr)  
   first obs. used      1998-09-24  
   last obs. used      2019-11-29  
   planetary ephem.      DE431  
   SB-pert. ephem.      SB431-N16  
   condition code      0  
   norm. resid. RMS      .53424  
   source      ORB  
   producer      Otto Matic  
   solution date      2019-Dec-14 04:08:32  

Additional Information
 Earth MOID = 1.80207 au 
 Jupiter MOID = 1.81163 au 
 T_jup = 3.218 
[ show covariance matrix ]

Ephemeris | Orbit Diagram | Orbital Elements | Mission Design | Physical Parameters | Discovery Circumstances | Close-Approach Data ]

Physical Parameter Table
Parameter Symbol Value Units Sigma Reference Notes
absolute magnitude H 13.4   n/a MPO351172  
diameter diameter 7.719 km 0.170 urn:nasa:pds:neowise_diameters_albedos::2.0[mainbelt] (http://adsabs.harvard.edu/abs/2011ApJ...741...68M)  
geometric albedo albedo 0.156   0.020 urn:nasa:pds:neowise_diameters_albedos::2.0[mainbelt] (http://adsabs.harvard.edu/abs/2011ApJ...741...68M)  

47995 (2000 YE133)          Discovered 2000-Dec-30 by LONEOS at Anderson Mesa
Reference: 20020921/Numbers.arcLast Updated: 2004-04-19

[ show close-approach data ]
Alternate Designations
 2000 YE133 = 1998 TV31 = 2000 AC183 
Ephemeris | Orbit Diagram | Orbital Elements | Mission Design | Physical Parameters | Discovery Circumstances | Close-Approach Data ]
ABOUT SSD CREDITS/AWARDS PRIVACY/COPYRIGHT GLOSSARY LINKS
FirstGov 2020-Jan-20 23:57 UT
(server date/time)  
NASA Home Page
Site Manager:   Ryan S. Park
Webmaster  Alan B. Chamberlin